GOES 6 (14050 NORAD) Tracking and Keplerian Element Data

This shows tracking and keplerian element data for the satellite.

Feedback or suggestion? Click here.




ElementValue
Catalog14050
NameGOES 6
Epoch Orbit21101
Epoch Day34.30974382
Epoch Year2025
RAAN324.5221
Inclination10.9887
Eccentricity0.0002072
Argument of Perigee254.5119
Mean Anonmoly302.5552
Mean Motion1.00309881
Decay Rate-2.21E-06
L11 14050U 83041A 25034.30974382 -.00000221 00000+0 00000+0 0 9990
L22 14050 10.9887 324.5221 0002072 254.5119 302.5552 1.00309881211019



Live tracking and technical data element details for GOES 6 (NORAD 14050). GOES 6 can be tracked NOW for your location showing map with azimuth and elevation plus other details from your city location.







IsCatalogInMostPopularTable: catalog: 14050, numindb: 290
Update: records affected: 1



GetName: 14050 GOES 6

Hit Count: updated at: Fri, 16 May 2025 11:58:58 GMT